Regional Weather Roundup
Issued by NWS

Home | Current Version | Previous Version | Text Only | Print | Product List | Glossary On
Versions: 1 2 3 4 5 6 7 8 9 10 11 12 13 14 15 16 17 18 19 20 21 22 23 24 25 26 27 28 29 30 31 32 33 34 35 36 37 38 39 40 41 42 43 44 45 46 47 48 49 50
000
ASUS43 KDMX 262004
RWRIA

WEATHER ROUNDUP FOR IOWA
NATIONAL WEATHER SERVICE DES MOINES IA
  ISSUED BY NWS QUAD CITIES IA IL
300 PM CDT THU MAR 26 2015

NOTE: "FAIR" INDICATES FEW OR NO CLOUDS BELOW 12,000 FEET WITH NO
SIGNIFICANT WEATHER AND/OR OBSTRUCTIONS TO VISIBILITY.

* - THESE STATIONS ARE NOT NWS STATIONS...THUS NOT UNDER NWS
QUALITY CONTROL.  THEY ALSO DO NOT REPORT WEATHER SUCH
AS PRECIPITATION OR FOG.

IAZ001>003-012>014-020>022-031>034-043>046-262100-
   NORTHWEST IOWA

CITY           SKY/WX    TMP DP  RH WIND       PRES   REMARKS
CARROLL *      CLOUDY    43  21  42 N17       30.11F WCI  35
CHEROKEE *     CLOUDY    40  26  56 N9        30.12F WCI  34
DENNISON *     PTSUNNY   41  23  48 NW9G20    30.11F WCI  35
LE MARS *      CLOUDY    41  25  52 N10G18    30.14F WCI  35
ORANGE CITY *  CLOUDY    39  25  56 N8        30.13F WCI  34
SHELDON *      CLOUDY    37  25  60 N12       30.12F WCI  30
SIOUX CITY     CLOUDY    43  22  43 NW9       30.15F WCI  38
SPENCER        CLOUDY    38  23  55 N18       30.13F WCI  28
STORM LAKE *   CLOUDY    39  25  56 N15G23    30.12F WCI  31
$$

IAZ055>058-069>071-079>083-090>094-262100-
   SOUTHWEST IOWA

CITY           SKY/WX    TMP DP  RH WIND       PRES   REMARKS
ATLANTIC *     MOSUNNY   46  23  39 NW13G21   30.11F
AUDUBON *      PTSUNNY   45  21  39 N13G20    30.12F WCI  38
CLARINDA *     SUNNY     46  27  46 NW12      30.14F
COUNCIL BLFS * SUNNY     46  25  42 NW12      30.11F
CRESTON *      MOSUNNY   46  27  46 N12G18    30.10F
HARLAN *       PTSUNNY   46  25  42 NW14G22   30.15F
LAMONI         SUNNY     49  26  41 N13G23    30.08F
RED OAK *      MOSUNNY   46  25  42 NW12      30.12F
SHENANDOAH *   SUNNY     48  25  40 N5G14     30.13F
$$

IAZ047>049-059>061-072>074-084-262100-
   CENTRAL IOWA

CITY           SKY/WX    TMP DP  RH WIND       PRES   REMARKS
AMES           PTSUNNY   43  24  47 N14G26    30.11F WCI  36
ANKENY *       MOSUNNY   45  23  42 NW15G23   30.10F WCI  38
BOONE *        PTSUNNY   43  25  49 NW17G25   30.09F WCI  35
CHARITON *     SUNNY     46  25  42 NW21      30.08F
DES MOINES     PTSUNNY   46  22  38 N17G28    30.10F
GRINNELL *     MOCLDY    44  25  47 NW21G29   30.09F WCI  36
KNOXVILLE *    MOSUNNY   45  23  42 NW16G26   30.07F WCI  37
MARSHALLTOWN   MOSUNNY   44  25  47 NW26G33   30.08F WCI  35
NEWTON *       PTSUNNY   43  27  52 NW20      30.09F WCI  34
PERRY *        MOCLDY    46  27  48 NW13      30.11F
$$

IAZ004>006-015-016-023>025-035-036-262100-
   NORTH CENTRAL IOWA

CITY           SKY/WX    TMP DP  RH WIND       PRES   REMARKS
ALGONA *       CLOUDY    36  23  60 N18       30.12F WCI  25
CLARION *      MIX PCPN  37  27  65 NW15G23   30.11F WCI  28
ESTHERVILLE    CLOUDY    36  24  62 NW16      30.12F WCI  26
FORT DODGE *   CLOUDY    39  25  56 NW9G17    30.12F WCI  33
MASON CITY     MOSUNNY   38  23  55 NW23G29   30.10F WCI  27
FOREST CITY *  FAIR      36  21  55 NW18G25   30.09F WCI  25
WEBSTER CITY * PTSUNNY   39  27  60 NW20      30.09F WCI  30
IOWA FALLS *   FAIR      41  26  56 NW17G28   30.10F WCI  32
$$

IAZ007>011-017>019-026>030-037>042-050>054-066-262100-
   NORTHEAST IOWA

CITY           SKY/WX    TMP DP  RH WIND       PRES   REMARKS
CEDAR RAPIDS   SUNNY     45  21  38 NW23G36   30.04F WCI  36
CHARLES CITY * PTSUNNY   34  25  69 NW15G23   30.10S WCI  24
CLINTON *      SUNNY     45  27  49 NW20G25   30.03S WCI  37
DECORAH *      CLOUDY    32  21  64 NW12G21   30.06S WCI  23
DUBUQUE        SUNNY     38  21  50 NW18G26   30.02S WCI  28
MONTICELLO *   MOSUNNY   41  25  52 NW22G32   30.04R WCI  31
OELWEIN *      PTSUNNY   36  23  60 NW21G29   30.08S WCI  24
WATERLOO       MOSUNNY   41  24  51 NW18G26   30.07F WCI  32
$$

IAZ064-065-067-068-078-262100-
   EAST CENTRAL IOWA

CITY           SKY/WX    TMP DP  RH WIND       PRES   REMARKS
DAVENPORT      SUNNY     45  23  42 NW22G29   30.02S WCI  37
IOWA CITY      SUNNY     46  19  34 NW25G33   30.06F
MT. PLEASANT * SUNNY     47  24  40 NW15G24   30.05F
MUSCATINE *    SUNNY     48  23  37 NW22      30.05S
QUAD CITIES    SUNNY     46  23  40 NW15G26   30.02S
$$

IAZ062-063-075>077-085>089-095>099-262100-
   SOUTHEAST IOWA

CITY           SKY/WX    TMP DP  RH WIND       PRES   REMARKS
BURLINGTON     PTSUNNY   49  26  41 NW20G25   30.03F
FAIRFIELD *    MOSUNNY   46  25  42 NW18G26   30.06S
FORT MADISON * MOSUNNY   46  27  46 NW15G21   30.05F
KEOKUK *       SUNNY     48  25  40 N10G24    30.05F
CENTERVILLE *  FAIR      48  25  40 NW18G26   30.08F
OTTUMWA        MOSUNNY   47  23  38 NW23G35   30.07F
WASHINGTON *   SUNNY     46  25  42 NW21G33   30.05F
$$

ABBREVIATIONS USED IN REMARKS
   TC - TEMPERATURES IN CELSIUS
  WCI - WIND CHILL INDEX
   HX - HEAT INDEX
  VSB - VISIBILITY
$$



USA.gov is the U.S. government's official web portal to all federal, state and local government web resources and services.